GSAT0202 (GALILEO 6)

Last updated on Jan. 24, 2020, 4:41 a.m. UTC

1 40129U 14050B   20023.05546909 -.00000116  00000-0  00000+0 0  9999
2 40129  50.6214   6.2438 1661151  95.4361 283.6977  1.85520052 37097
UTC
Height (km)
Latitude
Longitude
Inclination
Orbital Period
UTC large
Height (km)
Speed (km/s)
/
Latitude / Longitude
Inclination (degrees)
Orbital Period (minutes)
Azimuth
Elevation
Range (km)
Doppler Factor
iOS Compass Heading
iOS Angle

Next 30 passes for location: Hong Kong

Rise time Rise Azimuth (degrees) Set time Set Azimuth (degrees) Duration Max altitude (degrees)

No matching passes for this satellites